Location: Arroyo Grande
(40.2671°N, 4.2512°W)
Time: 23:34:31
(UTC+00:00)

Cosmos 2278 Rocket - Pass Details

Date: 05 October 2023
Orbit: 842 x 844 km, 71.0° (Epoch: 03 December)

Event Time Altitude Azimuth Distance (km) Brightness Sun altitude
Rises 19:59:24 0° 323° (NW) 3,408 6.1 -24.7°
Reaches altitude 10° 20:02:18 10° 309° (NW) 2,468 5.5 -25.2°
Maximum altitude 20:06:37 23° 259° (W) 1,722 4.4 -26.0°
Drops below altitude 10° 20:10:56 10° 209° (SSW) 2,454 4.7 -26.8°
Sets 20:13:50 0° 195° (SSW) 3,383 5.3 -27.3°
